Year,Month,Day,Hour,Minute,Value (Times are PST for barometer in hPa)
2014,02,15,00,00,1012.13
2014,02,15,00,01,1012.15
2014,02,15,00,02,1012.12
2014,02,15,00,03,1012.13
2014,02,15,00,04,1012.16
2014,02,15,00,05,1012.16
2014,02,15,00,06,1012.17
2014,02,15,00,07,1012.20
2014,02,15,00,08,1012.24
2014,02,15,00,09,1012.26
2014,02,15,00,10,1012.26
2014,02,15,00,11,1012.28
2014,02,15,00,12,1012.33
2014,02,15,00,13,1012.31
2014,02,15,00,14,1012.27
2014,02,15,00,15,1012.30
2014,02,15,00,16,1012.31
2014,02,15,00,17,1012.26
2014,02,15,00,18,1012.25
2014,02,15,00,19,1012.24
2014,02,15,00,20,1012.27
2014,02,15,00,21,1012.28
2014,02,15,00,22,1012.26
2014,02,15,00,23,1012.26
2014,02,15,00,24,1012.27
2014,02,15,00,25,1012.28
2014,02,15,00,26,1012.25
2014,02,15,00,27,1012.24
2014,02,15,00,28,1012.27
2014,02,15,00,29,1012.28
2014,02,15,00,30,1012.27
2014,02,15,00,31,1012.31
2014,02,15,00,32,1012.35
2014,02,15,00,33,1012.33
2014,02,15,00,34,1012.33
2014,02,15,00,35,1012.33
2014,02,15,00,36,1012.31
2014,02,15,00,37,1012.26
2014,02,15,00,38,1012.27
2014,02,15,00,39,1012.29
2014,02,15,00,40,1012.30
2014,02,15,00,41,1012.34
2014,02,15,00,42,1012.37
2014,02,15,00,43,1012.40
2014,02,15,00,44,1012.40
2014,02,15,00,45,1012.38
2014,02,15,00,46,1012.34
2014,02,15,00,47,1012.37
2014,02,15,00,48,1012.42
2014,02,15,00,49,1012.45
2014,02,15,00,50,1012.41
2014,02,15,00,51,1012.35
2014,02,15,00,52,1012.32
2014,02,15,00,53,1012.29
2014,02,15,00,54,1012.27
2014,02,15,00,55,1012.23
2014,02,15,00,56,1012.22
2014,02,15,00,57,1012.18
2014,02,15,00,58,1012.15
2014,02,15,00,59,1012.13
2014,02,15,01,00,1012.17
2014,02,15,01,01,1012.18
2014,02,15,01,02,1012.16
2014,02,15,01,03,1012.14
2014,02,15,01,04,1012.10
2014,02,15,01,05,1012.11
2014,02,15,01,06,1012.08
2014,02,15,01,07,1012.06
2014,02,15,01,08,1012.06
2014,02,15,01,09,1012.04
2014,02,15,01,10,1011.96
2014,02,15,01,11,1011.88
2014,02,15,01,12,1011.85
2014,02,15,01,13,1011.84
2014,02,15,01,14,1011.82
2014,02,15,01,15,1011.82
2014,02,15,01,16,1011.80
2014,02,15,01,17,1011.75
2014,02,15,01,18,1011.75
2014,02,15,01,19,1011.76
2014,02,15,01,20,1011.78
2014,02,15,01,21,1011.74
2014,02,15,01,22,1011.73
2014,02,15,01,23,1011.74
2014,02,15,01,24,1011.72
2014,02,15,01,25,1011.73
2014,02,15,01,26,1011.76
2014,02,15,01,27,1011.77
2014,02,15,01,28,1011.73
2014,02,15,01,29,1011.75
2014,02,15,01,30,1011.75
2014,02,15,01,31,1011.75
2014,02,15,01,32,1011.75
2014,02,15,01,33,1011.74
2014,02,15,01,34,1011.72
2014,02,15,01,35,1011.71
2014,02,15,01,36,1011.67
2014,02,15,01,37,1011.62
2014,02,15,01,38,1011.53
2014,02,15,01,39,1011.47
2014,02,15,01,40,1011.44
2014,02,15,01,41,1011.41
2014,02,15,01,42,1011.39
2014,02,15,01,43,1011.35
2014,02,15,01,44,1011.31
2014,02,15,01,45,1011.20
2014,02,15,01,46,1011.17
2014,02,15,01,47,1011.14
2014,02,15,01,48,1011.15
2014,02,15,01,49,1011.19
2014,02,15,01,50,1011.21
2014,02,15,01,51,1011.24
2014,02,15,01,52,1011.34
2014,02,15,01,53,1011.32
2014,02,15,01,54,1011.34
2014,02,15,01,55,1011.31
2014,02,15,01,56,1011.31
2014,02,15,01,57,1011.30
2014,02,15,01,58,1011.29
2014,02,15,01,59,1011.28
2014,02,15,02,00,1011.23
2014,02,15,02,01,1011.27
2014,02,15,02,02,1011.23
2014,02,15,02,03,1011.25
2014,02,15,02,04,1011.18
2014,02,15,02,05,1011.18
2014,02,15,02,06,1011.17
2014,02,15,02,07,1011.13
2014,02,15,02,08,1011.13
2014,02,15,02,09,1011.19
2014,02,15,02,10,1011.23
2014,02,15,02,11,1011.29
2014,02,15,02,12,1011.30
2014,02,15,02,13,1011.28
2014,02,15,02,14,1011.28
2014,02,15,02,15,1011.26
2014,02,15,02,16,1011.18
2014,02,15,02,17,1011.09
2014,02,15,02,18,1011.03
2014,02,15,02,19,1010.99
2014,02,15,02,20,1010.94
2014,02,15,02,21,1010.94
2014,02,15,02,22,1010.94
2014,02,15,02,23,1010.93
2014,02,15,02,24,1010.92
2014,02,15,02,25,1010.95
2014,02,15,02,26,1010.97
2014,02,15,02,27,1010.97
2014,02,15,02,28,1010.97
2014,02,15,02,29,1010.96
2014,02,15,02,30,1010.94
2014,02,15,02,31,1010.93
2014,02,15,02,32,1010.92
2014,02,15,02,33,1010.96
2014,02,15,02,34,1011.03
2014,02,15,02,35,1011.11
2014,02,15,02,36,1011.13
2014,02,15,02,37,1011.17
2014,02,15,02,38,1011.14
2014,02,15,02,39,1011.14
2014,02,15,02,40,1011.13
2014,02,15,02,41,1011.11
2014,02,15,02,42,1011.11
2014,02,15,02,43,1011.11
2014,02,15,02,44,1011.13
2014,02,15,02,45,1011.19
2014,02,15,02,46,1011.23
2014,02,15,02,47,1011.28
2014,02,15,02,48,1011.29
2014,02,15,02,49,1011.30
2014,02,15,02,50,1011.26
2014,02,15,02,51,1011.23
2014,02,15,02,52,1011.26
2014,02,15,02,53,1011.21
2014,02,15,02,54,1011.23
2014,02,15,02,55,1011.25
2014,02,15,02,56,1011.18
2014,02,15,02,57,1011.19
2014,02,15,02,58,1011.20
2014,02,15,02,59,1011.17
2014,02,15,03,00,1011.13
2014,02,15,03,01,1011.10
2014,02,15,03,02,1011.06
2014,02,15,03,03,1011.04
2014,02,15,03,04,1011.03
2014,02,15,03,05,1011.02
2014,02,15,03,06,1011.05
2014,02,15,03,07,1011.05
2014,02,15,03,08,1011.00
2014,02,15,03,09,1010.96
2014,02,15,03,10,1010.93
2014,02,15,03,11,1010.90
2014,02,15,03,12,1010.87
2014,02,15,03,13,1010.86
2014,02,15,03,14,1010.81
2014,02,15,03,15,1010.73
2014,02,15,03,16,1010.68
2014,02,15,03,17,1010.62
2014,02,15,03,18,1010.58
2014,02,15,03,19,1010.52
2014,02,15,03,20,1010.50
2014,02,15,03,21,1010.49
2014,02,15,03,22,1010.45
2014,02,15,03,23,1010.42
2014,02,15,03,24,1010.40
2014,02,15,03,25,1010.39
2014,02,15,03,26,1010.33
2014,02,15,03,27,1010.26
2014,02,15,03,28,1010.27
2014,02,15,03,29,1010.31
2014,02,15,03,30,1010.36
2014,02,15,03,31,1010.35
2014,02,15,03,32,1010.33
2014,02,15,03,33,1010.32
2014,02,15,03,34,1010.29
2014,02,15,03,35,1010.25
2014,02,15,03,36,1010.23
2014,02,15,03,37,1010.24
2014,02,15,03,38,1010.27
2014,02,15,03,39,1010.29
2014,02,15,03,40,1010.24
2014,02,15,03,41,1010.19
2014,02,15,03,42,1010.20
2014,02,15,03,43,1010.23
2014,02,15,03,44,1010.24
2014,02,15,03,45,1010.26
2014,02,15,03,46,1010.25
2014,02,15,03,47,1010.22
2014,02,15,03,48,1010.19
2014,02,15,03,49,1010.18
2014,02,15,03,50,1010.15
2014,02,15,03,51,1010.11
2014,02,15,03,52,1010.05
2014,02,15,03,53,1010.01
2014,02,15,03,54,1009.99
2014,02,15,03,55,1009.98
2014,02,15,03,56,1009.96
2014,02,15,03,57,1009.95
2014,02,15,03,58,1009.91
2014,02,15,03,59,1009.88
2014,02,15,04,00,1009.86
2014,02,15,04,01,1009.83
2014,02,15,04,02,1009.75
2014,02,15,04,03,1009.74
2014,02,15,04,04,1009.70
2014,02,15,04,05,1009.65
2014,02,15,04,06,1009.63
2014,02,15,04,07,1009.58
2014,02,15,04,08,1009.57
2014,02,15,04,09,1009.50
2014,02,15,04,10,1009.45
2014,02,15,04,11,1009.45
2014,02,15,04,12,1009.45
2014,02,15,04,13,1009.47
2014,02,15,04,14,1009.52
2014,02,15,04,15,1009.52
2014,02,15,04,16,1009.51
2014,02,15,04,17,1009.48
2014,02,15,04,18,1009.47
2014,02,15,04,19,1009.45
2014,02,15,04,20,1009.46
2014,02,15,04,21,1009.48
2014,02,15,04,22,1009.48
2014,02,15,04,23,1009.47
2014,02,15,04,24,1009.46
2014,02,15,04,25,1009.48
2014,02,15,04,26,1009.47
2014,02,15,04,27,1009.47
2014,02,15,04,28,1009.50
2014,02,15,04,29,1009.45
2014,02,15,04,30,1009.44
2014,02,15,04,31,1009.44
2014,02,15,04,32,1009.48
2014,02,15,04,33,1009.47
2014,02,15,04,34,1009.45
2014,02,15,04,35,1009.46
2014,02,15,04,36,1009.47
2014,02,15,04,37,1009.44
2014,02,15,04,38,1009.42
2014,02,15,04,39,1009.42
2014,02,15,04,40,1009.42
2014,02,15,04,41,1009.42
2014,02,15,04,42,1009.42
2014,02,15,04,43,1009.41
2014,02,15,04,44,1009.39
2014,02,15,04,45,1009.41
2014,02,15,04,46,1009.37
2014,02,15,04,47,1009.34
2014,02,15,04,48,1009.32
2014,02,15,04,49,1009.35
2014,02,15,04,50,1009.37
2014,02,15,04,51,1009.42
2014,02,15,04,52,1009.42
2014,02,15,04,53,1009.41
2014,02,15,04,54,1009.37
2014,02,15,04,55,1009.35
2014,02,15,04,56,1009.33
2014,02,15,04,57,1009.27
2014,02,15,04,58,1009.24
2014,02,15,04,59,1009.20
2014,02,15,05,00,1009.17
2014,02,15,05,01,1009.13
2014,02,15,05,02,1009.10
2014,02,15,05,03,1009.08
2014,02,15,05,04,1009.07
2014,02,15,05,05,1009.05
2014,02,15,05,06,1009.08
2014,02,15,05,07,1009.08
2014,02,15,05,08,1009.08
2014,02,15,05,09,1009.08
2014,02,15,05,10,1009.05
2014,02,15,05,11,1008.97
2014,02,15,05,12,1008.97
2014,02,15,05,13,1008.96
2014,02,15,05,14,1008.94
2014,02,15,05,15,1008.93
2014,02,15,05,16,1008.89
2014,02,15,05,17,1008.83
2014,02,15,05,18,1008.81
2014,02,15,05,19,1008.80
2014,02,15,05,20,1008.78
2014,02,15,05,21,1008.81
2014,02,15,05,22,1008.80
2014,02,15,05,23,1008.75
2014,02,15,05,24,1008.71
2014,02,15,05,25,1008.73
2014,02,15,05,26,1008.69
2014,02,15,05,27,1008.66
2014,02,15,05,28,1008.61
2014,02,15,05,29,1008.56
2014,02,15,05,30,1008.64
2014,02,15,05,31,1008.64
2014,02,15,05,32,1008.62
2014,02,15,05,33,1008.54
2014,02,15,05,34,1008.47
2014,02,15,05,35,1008.45
2014,02,15,05,36,1008.39
2014,02,15,05,37,1008.37
2014,02,15,05,38,1008.36
2014,02,15,05,39,1008.31
2014,02,15,05,40,1008.25
2014,02,15,05,41,1008.21
2014,02,15,05,42,1008.14
2014,02,15,05,43,1008.04
2014,02,15,05,44,1007.98
2014,02,15,05,45,1007.95
2014,02,15,05,46,1007.91
2014,02,15,05,47,1007.84
2014,02,15,05,48,1007.80
2014,02,15,05,49,1007.81
2014,02,15,05,50,1007.78
2014,02,15,05,51,1007.76
2014,02,15,05,52,1007.77
2014,02,15,05,53,1007.82
2014,02,15,05,54,1007.90
2014,02,15,05,55,1007.95
2014,02,15,05,56,1007.99
2014,02,15,05,57,1007.97
2014,02,15,05,58,1007.92
2014,02,15,05,59,1007.86
2014,02,15,06,00,1007.76
2014,02,15,06,01,1007.74
2014,02,15,06,02,1007.69
2014,02,15,06,03,1007.68
2014,02,15,06,04,1007.65
2014,02,15,06,05,1007.65
2014,02,15,06,06,1007.64
2014,02,15,06,07,1007.60
2014,02,15,06,08,1007.57
2014,02,15,06,09,1007.61
2014,02,15,06,10,1007.58
2014,02,15,06,11,1007.55
2014,02,15,06,12,1007.51
2014,02,15,06,13,1007.38
2014,02,15,06,14,1007.39
2014,02,15,06,15,1007.43
2014,02,15,06,16,1007.45
2014,02,15,06,17,1007.42
2014,02,15,06,18,1007.35
2014,02,15,06,19,1007.35
2014,02,15,06,20,1007.35
2014,02,15,06,21,1007.33
2014,02,15,06,22,1007.26
2014,02,15,06,23,1007.20
2014,02,15,06,24,1007.15
2014,02,15,06,25,1007.16
2014,02,15,06,26,1007.19
2014,02,15,06,27,1007.21
2014,02,15,06,28,1007.20
2014,02,15,06,29,1007.15
2014,02,15,06,30,1007.12
2014,02,15,06,31,1007.03
2014,02,15,06,32,1007.01
2014,02,15,06,33,1006.98
2014,02,15,06,34,1006.89
2014,02,15,06,35,1006.84
2014,02,15,06,36,1006.82
2014,02,15,06,37,1006.76
2014,02,15,06,38,1006.69
2014,02,15,06,39,1006.64
2014,02,15,06,40,1006.63
2014,02,15,06,41,1006.61
2014,02,15,06,42,1006.64
2014,02,15,06,43,1006.66
2014,02,15,06,44,1006.72
2014,02,15,06,45,1006.76
2014,02,15,06,46,1006.71
2014,02,15,06,47,1006.72
2014,02,15,06,48,1006.74
2014,02,15,06,49,1006.75
2014,02,15,06,50,1006.77
2014,02,15,06,51,1006.76
2014,02,15,06,52,1006.74
2014,02,15,06,53,1006.72
2014,02,15,06,54,1006.65
2014,02,15,06,55,1006.60
2014,02,15,06,56,1006.59
2014,02,15,06,57,1006.56
2014,02,15,06,58,1006.53
2014,02,15,06,59,1006.49
2014,02,15,07,00,1006.46
2014,02,15,07,01,1006.42
2014,02,15,07,02,1006.36
2014,02,15,07,03,1006.33
2014,02,15,07,04,1006.34
2014,02,15,07,05,1006.36
2014,02,15,07,06,1006.32
2014,02,15,07,07,1006.25
2014,02,15,07,08,1006.19
2014,02,15,07,09,1006.16
2014,02,15,07,10,1006.15
2014,02,15,07,11,1006.12
2014,02,15,07,12,1006.09
2014,02,15,07,13,1006.05
2014,02,15,07,14,1006.02
2014,02,15,07,15,1005.97
2014,02,15,07,16,1005.91
2014,02,15,07,17,1005.84
2014,02,15,07,18,1005.77
2014,02,15,07,19,1005.72
2014,02,15,07,20,1005.71
2014,02,15,07,21,1005.69
2014,02,15,07,22,1005.67
2014,02,15,07,23,1005.61
2014,02,15,07,24,1005.61
2014,02,15,07,25,1005.71
2014,02,15,07,26,1005.76
2014,02,15,07,27,1005.77
2014,02,15,07,28,1005.78
2014,02,15,07,29,1005.76
2014,02,15,07,30,1005.77
2014,02,15,07,31,1005.80
2014,02,15,07,32,1005.82
2014,02,15,07,33,1005.79
2014,02,15,07,34,1005.78
2014,02,15,07,35,1005.74
2014,02,15,07,36,1005.67
2014,02,15,07,37,1005.60
2014,02,15,07,38,1005.53
2014,02,15,07,39,1005.48
2014,02,15,07,40,1005.46
2014,02,15,07,41,1005.48
2014,02,15,07,42,1005.44
2014,02,15,07,43,1005.43
2014,02,15,07,44,1005.43
2014,02,15,07,45,1005.38
2014,02,15,07,46,1005.34
2014,02,15,07,47,1005.33
2014,02,15,07,48,1005.33
2014,02,15,07,49,1005.30
2014,02,15,07,50,1005.34
2014,02,15,07,51,1005.31
2014,02,15,07,52,1005.27
2014,02,15,07,53,1005.19
2014,02,15,07,54,1005.09
2014,02,15,07,55,1005.03
2014,02,15,07,56,1004.96
2014,02,15,07,57,1004.89
2014,02,15,07,58,1004.84
2014,02,15,07,59,1004.83
2014,02,15,08,00,1004.81
2014,02,15,08,01,1004.83
2014,02,15,08,02,1004.87
2014,02,15,08,03,1004.85
2014,02,15,08,04,1004.87
2014,02,15,08,05,1004.83
2014,02,15,08,06,1004.80
2014,02,15,08,07,1004.77
2014,02,15,08,08,1004.74
2014,02,15,08,09,1004.74
2014,02,15,08,10,1004.74
2014,02,15,08,11,1004.72
2014,02,15,08,12,1004.67
2014,02,15,08,13,1004.68
2014,02,15,08,14,1004.71
2014,02,15,08,15,1004.70
2014,02,15,08,16,1004.67
2014,02,15,08,17,1004.67
2014,02,15,08,18,1004.66
2014,02,15,08,19,1004.64
2014,02,15,08,20,1004.62
2014,02,15,08,21,1004.57
2014,02,15,08,22,1004.58
2014,02,15,08,23,1004.61
2014,02,15,08,24,1004.62
2014,02,15,08,25,1004.61
2014,02,15,08,26,1004.53
2014,02,15,08,27,1004.49
2014,02,15,08,28,1004.47
2014,02,15,08,29,1004.46
2014,02,15,08,30,1004.41
2014,02,15,08,31,1004.42
2014,02,15,08,32,1004.35
2014,02,15,08,33,1004.31
2014,02,15,08,34,1004.33
2014,02,15,08,35,1004.29
2014,02,15,08,36,1004.27
2014,02,15,08,37,1004.26
2014,02,15,08,38,1004.23
2014,02,15,08,39,1004.23
2014,02,15,08,40,1004.22
2014,02,15,08,41,1004.17
2014,02,15,08,42,1004.17
2014,02,15,08,43,1004.16
2014,02,15,08,44,1004.12
2014,02,15,08,45,1004.10
2014,02,15,08,46,1004.10
2014,02,15,08,47,1004.09
2014,02,15,08,48,1004.05
2014,02,15,08,49,1004.01
2014,02,15,08,50,1003.95
2014,02,15,08,51,1003.91
2014,02,15,08,52,1003.81
2014,02,15,08,53,1003.75
2014,02,15,08,54,1003.73
2014,02,15,08,55,1003.72
2014,02,15,08,56,1003.70
2014,02,15,08,57,1003.72
2014,02,15,08,58,1003.69
2014,02,15,08,59,1003.68
2014,02,15,09,00,1003.66
2014,02,15,09,01,1003.64
2014,02,15,09,02,1003.59
2014,02,15,09,03,1003.59
2014,02,15,09,04,1003.57
2014,02,15,09,05,1003.51
2014,02,15,09,06,1003.49
2014,02,15,09,07,1003.49
2014,02,15,09,08,1003.49
2014,02,15,09,09,1003.49
2014,02,15,09,10,1003.49
2014,02,15,09,11,1003.48
2014,02,15,09,12,1003.45
2014,02,15,09,13,1003.42
2014,02,15,09,14,1003.42
2014,02,15,09,15,1003.41
2014,02,15,09,16,1003.39
2014,02,15,09,17,1003.37
2014,02,15,09,18,1003.30
2014,02,15,09,19,1003.24
2014,02,15,09,20,1003.21
2014,02,15,09,21,1003.18
2014,02,15,09,22,1003.18
2014,02,15,09,23,1003.17
2014,02,15,09,24,1003.15
2014,02,15,09,25,1003.13
2014,02,15,09,26,1003.07
2014,02,15,09,27,1003.04
2014,02,15,09,28,1002.99
2014,02,15,09,29,1002.95
2014,02,15,09,30,1002.94
2014,02,15,09,31,1002.90
2014,02,15,09,32,1002.87
2014,02,15,09,33,1002.84
2014,02,15,09,34,1002.78
2014,02,15,09,35,1002.70
2014,02,15,09,36,1002.67
2014,02,15,09,37,1002.62
2014,02,15,09,38,1002.57
2014,02,15,09,39,1002.55
2014,02,15,09,40,1002.50
2014,02,15,09,41,1002.46
2014,02,15,09,42,1002.40
2014,02,15,09,43,1002.37
2014,02,15,09,44,1002.35
2014,02,15,09,45,1002.30
2014,02,15,09,46,1002.28
2014,02,15,09,47,1002.23
2014,02,15,09,48,1002.18
2014,02,15,09,49,1002.12
2014,02,15,09,50,1002.09
2014,02,15,09,51,1002.06
2014,02,15,09,52,1002.03
2014,02,15,09,53,1002.02
2014,02,15,09,54,1002.00
2014,02,15,09,55,1002.00
2014,02,15,09,56,1001.98
2014,02,15,09,57,1001.92
2014,02,15,09,58,1001.90
2014,02,15,09,59,1001.88
2014,02,15,10,00,1001.82
2014,02,15,10,01,1001.78
2014,02,15,10,02,1001.74
2014,02,15,10,03,1001.75
2014,02,15,10,04,1001.72
2014,02,15,10,05,1001.70
2014,02,15,10,06,1001.72
2014,02,15,10,07,1001.68
2014,02,15,10,08,1001.67
2014,02,15,10,09,1001.68
2014,02,15,10,10,1001.65
2014,02,15,10,11,1001.62
2014,02,15,10,12,1001.58
2014,02,15,10,13,1001.55
2014,02,15,10,14,1001.48
2014,02,15,10,15,1001.45
2014,02,15,10,16,1001.42
2014,02,15,10,17,1001.43
2014,02,15,10,18,1001.45
2014,02,15,10,19,1001.42
2014,02,15,10,20,1001.41
2014,02,15,10,21,1001.38
2014,02,15,10,22,1001.37
2014,02,15,10,23,1001.36
2014,02,15,10,24,1001.29
2014,02,15,10,25,1001.28
2014,02,15,10,26,1001.25
2014,02,15,10,27,1001.24
2014,02,15,10,28,1001.21
2014,02,15,10,29,1001.18
2014,02,15,10,30,1001.15
2014,02,15,10,31,1001.15
2014,02,15,10,32,1001.14
2014,02,15,10,33,1001.07
2014,02,15,10,34,1001.05
2014,02,15,10,35,1001.05
2014,02,15,10,36,1001.04
2014,02,15,10,37,1000.97
2014,02,15,10,38,1000.95
2014,02,15,10,39,1000.94
2014,02,15,10,40,1000.92
2014,02,15,10,41,1000.90
2014,02,15,10,42,1000.85
2014,02,15,10,43,1000.86
2014,02,15,10,44,1000.87
2014,02,15,10,45,1000.84
2014,02,15,10,46,1000.80
2014,02,15,10,47,1000.73
2014,02,15,10,48,1000.67
2014,02,15,10,49,1000.62
2014,02,15,10,50,1000.54
2014,02,15,10,51,1000.43
2014,02,15,10,52,1000.42
2014,02,15,10,53,1000.42
2014,02,15,10,54,1000.37
2014,02,15,10,55,1000.35
2014,02,15,10,56,1000.29
2014,02,15,10,57,1000.23
2014,02,15,10,58,1000.18
2014,02,15,10,59,1000.20
2014,02,15,11,00,1000.18
2014,02,15,11,01,1000.13
2014,02,15,11,02,1000.12
2014,02,15,11,03,1000.18
2014,02,15,11,04,1000.19
2014,02,15,11,05,1000.16
2014,02,15,11,06,1000.11
2014,02,15,11,07,1000.11
2014,02,15,11,08,1000.02
2014,02,15,11,09,999.95
2014,02,15,11,10,999.86
2014,02,15,11,11,999.83
2014,02,15,11,12,999.83
2014,02,15,11,13,999.80
2014,02,15,11,14,999.75
2014,02,15,11,15,999.78
2014,02,15,11,16,999.72
2014,02,15,11,17,999.67
2014,02,15,11,18,999.59
2014,02,15,11,19,999.59
2014,02,15,11,20,999.58
2014,02,15,11,21,999.57
2014,02,15,11,22,999.57
2014,02,15,11,23,999.48
2014,02,15,11,24,999.45
2014,02,15,11,25,999.43
2014,02,15,11,26,999.43
2014,02,15,11,27,999.42
2014,02,15,11,28,999.39
2014,02,15,11,29,999.37
2014,02,15,11,30,999.33
2014,02,15,11,31,999.34
2014,02,15,11,32,999.27
2014,02,15,11,33,999.18
2014,02,15,11,34,999.15
2014,02,15,11,35,999.15
2014,02,15,11,36,999.17
2014,02,15,11,37,999.23
2014,02,15,11,38,999.26
2014,02,15,11,39,999.27
2014,02,15,11,40,999.28
2014,02,15,11,41,999.25
2014,02,15,11,42,999.21
2014,02,15,11,43,999.18
2014,02,15,11,44,999.12
2014,02,15,11,45,999.12
2014,02,15,11,46,999.11
2014,02,15,11,47,999.10
2014,02,15,11,48,999.10
2014,02,15,11,49,999.06
2014,02,15,11,50,999.07
2014,02,15,11,51,999.01
2014,02,15,11,52,998.93
2014,02,15,11,53,998.84
2014,02,15,11,54,998.68
2014,02,15,11,55,998.59
2014,02,15,11,56,998.59
2014,02,15,11,57,998.52
2014,02,15,11,58,998.44
2014,02,15,11,59,998.45
2014,02,15,12,00,998.49
2014,02,15,12,01,998.43
2014,02,15,12,02,998.40
2014,02,15,12,03,998.36
2014,02,15,12,04,998.30
2014,02,15,12,05,998.26
2014,02,15,12,06,998.23
2014,02,15,12,07,998.20
2014,02,15,12,08,998.16
2014,02,15,12,09,998.13
2014,02,15,12,10,998.06
2014,02,15,12,11,998.03
2014,02,15,12,12,998.00
2014,02,15,12,13,997.99
2014,02,15,12,14,997.95
2014,02,15,12,15,997.89
2014,02,15,12,16,997.88
2014,02,15,12,17,997.91
2014,02,15,12,18,997.93
2014,02,15,12,19,997.89
2014,02,15,12,20,997.95
2014,02,15,12,21,997.97
2014,02,15,12,22,997.97
2014,02,15,12,23,997.97
2014,02,15,12,24,997.96
2014,02,15,12,25,997.89
2014,02,15,12,26,997.85
2014,02,15,12,27,997.79
2014,02,15,12,28,997.74
2014,02,15,12,29,997.64
2014,02,15,12,30,997.55
2014,02,15,12,31,997.48
2014,02,15,12,32,997.41
2014,02,15,12,33,997.32
2014,02,15,12,34,997.29
2014,02,15,12,35,997.29
2014,02,15,12,36,997.28
2014,02,15,12,37,997.21
2014,02,15,12,38,997.18
2014,02,15,12,39,997.15
2014,02,15,12,40,997.10
2014,02,15,12,41,997.04
2014,02,15,12,42,996.97
2014,02,15,12,43,996.93
2014,02,15,12,44,996.95
2014,02,15,12,45,996.94
2014,02,15,12,46,996.88
2014,02,15,12,47,996.82
2014,02,15,12,48,996.81
2014,02,15,12,49,996.76
2014,02,15,12,50,996.67
2014,02,15,12,51,996.62
2014,02,15,12,52,996.50
2014,02,15,12,53,996.43
2014,02,15,12,54,996.33
2014,02,15,12,55,996.29
2014,02,15,12,56,996.22
2014,02,15,12,57,996.22
2014,02,15,12,58,996.13
2014,02,15,12,59,996.05
2014,02,15,13,00,995.98
2014,02,15,13,01,995.99
2014,02,15,13,02,995.90
2014,02,15,13,03,995.89
2014,02,15,13,04,995.83
2014,02,15,13,05,995.78
2014,02,15,13,06,995.85
2014,02,15,13,07,995.90
2014,02,15,13,08,995.91
2014,02,15,13,09,995.97
2014,02,15,13,10,995.97
2014,02,15,13,11,995.96
2014,02,15,13,12,995.91
2014,02,15,13,13,995.93
2014,02,15,13,14,995.87
2014,02,15,13,15,995.85
2014,02,15,13,16,995.79
2014,02,15,13,17,995.77
2014,02,15,13,18,995.76
2014,02,15,13,19,995.71
2014,02,15,13,20,995.64
2014,02,15,13,21,995.68
2014,02,15,13,22,995.63
2014,02,15,13,23,995.59
2014,02,15,13,24,995.42
2014,02,15,13,25,995.39
2014,02,15,13,26,995.38
2014,02,15,13,27,995.58
2014,02,15,13,28,995.43
2014,02,15,13,29,995.30
2014,02,15,13,30,995.20
2014,02,15,13,31,995.26
2014,02,15,13,32,995.27
2014,02,15,13,33,995.28
2014,02,15,13,34,995.25
2014,02,15,13,35,995.17
2014,02,15,13,36,995.12
2014,02,15,13,37,995.13
2014,02,15,13,38,995.17
2014,02,15,13,39,995.21
2014,02,15,13,40,995.11
2014,02,15,13,41,995.08
2014,02,15,13,42,995.06
2014,02,15,13,43,995.04
2014,02,15,13,44,994.96
2014,02,15,13,45,994.95
2014,02,15,13,46,994.91
2014,02,15,13,47,994.87
2014,02,15,13,48,994.78
2014,02,15,13,49,994.74
2014,02,15,13,50,994.72
2014,02,15,13,51,994.75
2014,02,15,13,52,994.74
2014,02,15,13,53,994.71
2014,02,15,13,54,994.68
2014,02,15,13,55,994.66
2014,02,15,13,56,994.58
2014,02,15,13,57,994.57
2014,02,15,13,58,994.54
2014,02,15,13,59,994.52
2014,02,15,14,00,994.51
2014,02,15,14,01,994.45
2014,02,15,14,02,994.44
2014,02,15,14,03,994.41
2014,02,15,14,04,994.37
2014,02,15,14,05,994.35
2014,02,15,14,06,994.33
2014,02,15,14,07,994.23
2014,02,15,14,08,994.19
2014,02,15,14,09,994.10
2014,02,15,14,10,994.06
2014,02,15,14,11,994.01
2014,02,15,14,12,994.00
2014,02,15,14,13,993.93
2014,02,15,14,14,993.90
2014,02,15,14,15,993.83
2014,02,15,14,16,993.79
2014,02,15,14,17,993.76
2014,02,15,14,18,993.70
2014,02,15,14,19,993.69
2014,02,15,14,20,993.62
2014,02,15,14,21,993.60
2014,02,15,14,22,993.58
2014,02,15,14,23,993.50
2014,02,15,14,24,993.51
2014,02,15,14,25,993.52
2014,02,15,14,26,993.49
2014,02,15,14,27,993.42
2014,02,15,14,28,993.35
2014,02,15,14,29,993.29
2014,02,15,14,30,993.25
2014,02,15,14,31,993.22
2014,02,15,14,32,993.16
2014,02,15,14,33,993.15
2014,02,15,14,34,993.13
2014,02,15,14,35,993.13
2014,02,15,14,36,993.13
2014,02,15,14,37,993.12
2014,02,15,14,38,993.08
2014,02,15,14,39,993.05
2014,02,15,14,40,993.03
2014,02,15,14,41,993.03
2014,02,15,14,42,993.02
2014,02,15,14,43,992.95
2014,02,15,14,44,992.89
2014,02,15,14,45,992.88
2014,02,15,14,46,992.85
2014,02,15,14,47,992.80
2014,02,15,14,48,992.71
2014,02,15,14,49,992.69
2014,02,15,14,50,992.69
2014,02,15,14,51,992.68
2014,02,15,14,52,992.61
2014,02,15,14,53,992.57
2014,02,15,14,54,992.54
2014,02,15,14,55,992.53
2014,02,15,14,56,992.53
2014,02,15,14,57,992.44
2014,02,15,14,58,992.41
2014,02,15,14,59,992.39
2014,02,15,15,00,992.41
2014,02,15,15,01,992.39
2014,02,15,15,02,992.41
2014,02,15,15,03,992.37
2014,02,15,15,04,992.34
2014,02,15,15,05,992.30
2014,02,15,15,06,992.27
2014,02,15,15,07,992.25
2014,02,15,15,08,992.26
2014,02,15,15,09,992.27
2014,02,15,15,10,992.26
2014,02,15,15,11,992.27
2014,02,15,15,12,992.25
2014,02,15,15,13,992.23
2014,02,15,15,14,992.13
2014,02,15,15,15,992.07
2014,02,15,15,16,992.00
2014,02,15,15,17,991.93
2014,02,15,15,18,991.91
2014,02,15,15,19,991.89
2014,02,15,15,20,991.81
2014,02,15,15,21,991.78
2014,02,15,15,22,991.64
2014,02,15,15,23,991.63
2014,02,15,15,24,991.59
2014,02,15,15,25,991.56
2014,02,15,15,26,991.50
2014,02,15,15,27,991.49
2014,02,15,15,28,991.42
2014,02,15,15,29,991.36
2014,02,15,15,30,991.32
2014,02,15,15,31,991.29
2014,02,15,15,32,991.23
2014,02,15,15,33,991.23
2014,02,15,15,34,991.22
2014,02,15,15,35,991.20
2014,02,15,15,36,991.18
2014,02,15,15,37,991.08
2014,02,15,15,38,991.05
2014,02,15,15,39,991.02
2014,02,15,15,40,990.95
2014,02,15,15,41,990.93
2014,02,15,15,42,990.92
2014,02,15,15,43,990.88
2014,02,15,15,44,990.85
2014,02,15,15,45,990.79
2014,02,15,15,46,990.78
2014,02,15,15,47,990.71
2014,02,15,15,48,990.64
2014,02,15,15,49,990.58
2014,02,15,15,50,990.54
2014,02,15,15,51,990.50
2014,02,15,15,52,990.54
2014,02,15,15,53,990.52
2014,02,15,15,54,990.52
2014,02,15,15,55,990.53
2014,02,15,15,56,990.54
2014,02,15,15,57,990.51
2014,02,15,15,58,990.48
2014,02,15,15,59,990.45
2014,02,15,16,00,990.42
2014,02,15,16,01,990.38
2014,02,15,16,02,990.35
2014,02,15,16,03,990.32
2014,02,15,16,04,990.25
2014,02,15,16,05,990.25
2014,02,15,16,06,990.15
2014,02,15,16,07,990.08
2014,02,15,16,08,990.04